Wind_Speed
14 13 14 17 17 20 20 21 24 21 20 17 14 17 18 19 22 19 12 12 12 12 12 16 18 19 12 7 6 7 9 12 18 21 24 20 18 16 28 25 33 26 23 25
15 16 16 17 18 20 21 19 20 20 21 19 19 18 14 18 21 19 17 18 16 14 13 10 9 14 13 9 5 6 5 8 12 21 16 17 21 23 26 28 33 28 25 31
17 19 17 18 14 18 18 18 20 22 21 21 21 20 17 20 21 21 19 14 14 14 16 13 13 12 12 10 12 9 8 6 15 7 11 12 19 17 23 14 17 22 31 37
17 18 18 18 17 13 20 19 21 20 18 15 17 15 19 22 25 24 21 16 14 17 13 11 7 4 9 10 11 10 4 4 6 13 7 11 13 16 24 31 23 16 25 39
20 19 18 19 16 16 21 19 15 20 17 16 20 14 18 20 20 13 13 12 12 7 7 9 8 8 10 7 7 6 6 6 8 10 16 8 8 12 12 15 25 22 28 29
23 23 23 25 21 16 17 14 14 17 14 15 22 17 18 18 21 19 18 15 12 11 7 5 14 15 9 13 11 5 6 5 4 6 6 12 14 14 13 12 11 18 21 28
23 20 21 23 22 20 18 15 13 14 12 16 23 11 19 20 21 13 17 14 13 9 8 13 11 12 20 16 16 13 12 7 5 7 10 11 10 12 11 16 19 20 17 20
15 17 17 12 16 18 17 17 13 18 13 15 10 6 11 24 10 2 12 17 14 12 10 8 9 3 4 9 13 9 8 8 7 7 9 9 10 10 13 17 20 22 19 23
16 20 7 8 14 6 11 15 19 15 17 14 16 12 15 21 18 12 10 4 5 4 7 3 1 6 6 4 3 4 8 9 9 9 10 9 11 14 18 20 21 21 19 20
17 20 14 14 4 4 8 9 8 5 4 12 13 16 11 3 12 19 12 9 9 10 9 6 8 8 8 9 9 12 13 16 18 9 12 11 14 15 18 18 18 20 22 24
10 13 15 11 10 21 9 14 20 11 9 7 10 11 5 4 5 18 11 10 10 11 6 10 8 9 10 10 13 11 13 12 14 16 14 12 13 13 13 14 14 19 22 23
4 6 12 18 18 21 19 17 3 4 8 8 8 11 13 3 4 5 6 4 4 6 12 10 7 8 10 10 11 9 10 9 15 15 13 15 13 13 15 17 19 20 20 22
7 5 11 13 13 12 6 18 10 13 10 12 11 14 9 4 17 11 10 15 11 14 14 10 9 7 6 9 11 11 10 13 15 11 11 14 16 14 16 18 19 22 23 24
1 9 14 14 19 16 6 11 13 9 8 9 15 23 16 9 4 12 17 14 17 19 17 11 8 8 9 11 12 11 13 13 16 16 17 16 16 17 20 23 24 24 24 25
6 12 15 18 20 22 23 23 18 21 21 17 18 20 20 17 12 17 16 14 11 15 29 18 7 5 8 11 13 15 15 15 14 15 18 18 19 21 23 27 29 29 27 28
9 15 15 20 22 22 25 23 21 22 22 23 25 25 20 19 20 16 19 22 17 23 16 12 8 2 7 9 10 12 12 11 13 16 20 23 24 25 26 27 31 30 27 29
13 9 10 15 16 18 14 20 17 18 18 14 17 23 21 22 16 11 11 13 10 9 5 6 26 9 5 7 12 15 17 19 20 21 22 24 27 29 32 31 31 32 32 32
12 10 8 12 15 13 7 15 9 2 15 12 6 17 11 15 18 15 6 2 14 9 13 15 12 10 15 17 17 18 19 19 21 24 24 25 30 31 32 33 34 33 32 32
8 5 3 4 9 17 17 10 15 13 13 14 19 20 19 16 15 10 13 6 8 16 15 14 20 22 23 22 18 20 22 23 25 28 31 33 34 33 34 31 34 35 29 31
5 4 5 7 5 7 9 15 14 17 12 17 18 19 22 22 15 13 19 22 20 18 17 16 21 24 23 22 22 23 23 24 23 27 28 27 31 35 33 35 34 35 33 30
6 4 10 10 7 8 11 19 17 9 11 22 21 21 20 16 15 21 20 21 20 22 22 28 28 22 26 23 20 21 22 21 26 30 32 33 34 36 34 35 32 29 25 23
5 4 4 6 5 6 15 8 11 13 17 19 19 16 18 19 21 21 22 22 22 24 25 30 23 23 26 23 23 25 21 27 29 30 30 31 34 35 29 32 29 28 25 23
4 2 3 4 5 16 15 15 16 16 18 17 20 19 22 23 22 24 22 25 24 25 19 27 23 24 24 22 25 21 24 29 28 29 30 29 29 30 33 31 30 26 25 24
9 10 6 10 5 16 21 16 20 20 22 25 26 25 25 26 23 21 25 20 19 20 19 26 24 16 17 21 25 26 26 28 28 28 28 29 29 30 31 29 28 26 25 23
4 9 8 14 14 24 11 18 19 21 23 23 23 24 27 25 19 21 18 20 18 18 22 23 17 16 22 24 26 26 27 26 27 27 25 25 27 27 27 28 25 27 29 27
3 3 3 4 17 13 18 21 27 23 21 19 23 22 23 18 19 20 18 17 15 17 21 17 20 23 26 26 27 27 26 28 26 26 24 26 25 24 22 18 11 17 27 32
Wind_Direction
253 243 252 247 254 256 265 269 283 291 295 306 244 236 250 252 256 258 225 227 242 238 239 254 172 144 142 177 189 213 174 158 194 194 193 192 198 221 238 243 234 237 228 212
241 249 259 263 263 277 279 280 281 287 278 280 276 263 258 263 269 267 221 219 222 234 228 239 167 147 154 185 219 245 246 172 162 199 213 217 211 207 227 239 228 231 242 233
258 277 290 292 279 282 268 266 273 276 279 269 255 259 258 266 264 265 257 230 227 221 212 216 221 166 167 180 203 213 213 245 145 182 186 230 231 224 221 240 248 240 237 236
270 279 290 292 284 274 272 272 262 261 262 266 272 268 253 251 232 239 237 241 239 232 227 193 178 222 146 228 211 198 219 249 283 178 202 214 219 218 242 243 254 259 241 240
271 270 262 272 257 264 274 268 294 301 287 284 257 264 268 277 276 250 215 225 233 229 197 198 173 205 217 209 229 218 187 206 208 230 180 210 257 260 239 257 221 263 250 245
272 271 274 275 265 261 264 278 281 284 284 269 263 259 267 265 260 255 204 195 197 196 167 211 179 183 185 219 220 208 243 225 223 258 245 189 234 254 267 254 278 234 244 251
265 286 289 274 265 277 248 252 257 249 245 258 261 316 280 258 238 291 150 167 160 176 209 174 191 191 188 200 194 202 209 213 235 238 236 232 218 239 253 267 263 269 267 255
274 292 298 346 328 281 273 295 243 254 258 259 245 261 255 328 197 176 164 167 178 181 205 175 214 178 207 196 198 199 194 199 233 253 259 258 261 265 268 272 270 262 261 265
292 273 294 180 221 251 264 252 277 276 285 277 268 244 280 279 301 185 175 165 177 178 201 148 187 231 216 234 245 218 201 264 265 235 227 246 256 245 247 255 263 279 275 273
300 298 298 315 24 280 199 275 287 218 241 246 261 249 235 269 265 275 185 200 202 185 189 197 239 253 251 233 215 210 229 232 234 257 276 258 241 250 252 256 259 266 274 270
308 300 298 344 285 284 217 223 249 301 238 259 283 283 58 327 177 230 213 203 186 211 197 228 255 278 277 248 235 236 220 237 239 228 235 257 275 271 267 270 271 266 266 270
201 264 272 282 258 279 302 276 290 184 296 287 258 254 286 212 224 331 259 246 228 227 235 233 219 240 275 273 279 269 257 262 282 258 247 253 252 265 275 275 272 268 270 264
1 302 317 322 297 36 20 304 294 320 257 216 241 270 274 44 299 277 263 244 228 236 242 233 231 222 251 286 287 275 282 281 284 300 293 291 287 290 278 272 271 272 273 276
123 282 275 275 285 306 211 242 271 196 255 262 260 281 285 157 234 276 292 288 320 307 289 239 208 220 221 239 258 287 300 293 285 282 276 276 279 278 282 287 282 276 273 271
233 273 282 285 284 285 292 292 255 261 279 273 268 270 276 284 206 238 232 266 299 277 275 242 194 227 234 239 237 241 243 249 275 291 295 291 288 286 285 280 276 273 269 267
276 267 273 282 284 284 280 295 287 278 268 265 268 262 261 266 265 248 231 236 239 263 307 321 258 192 280 290 299 312 325 303 283 282 287 293 289 288 281 277 276 273 269 268
291 306 312 282 288 305 277 260 274 291 304 301 298 299 326 329 270 286 339 334 319 287 241 330 285 315 353 336 320 312 304 293 283 279 278 278 276 275 277 275 268 267 266 264
268 274 288 283 299 283 282 320 295 150 281 301 241 253 280 338 328 326 250 307 299 283 300 332 334 328 319 311 294 296 298 298 296 290 282 280 282 273 265 267 266 263 258 262
232 274 275 262 264 289 298 360 321 326 324 24 0 348 348 337 323 269 237 54 305 298 317 312 304 307 305 294 293 282 281 285 280 274 272 271 269 267 273 259 260 261 257 257
203 233 216 281 273 279 313 24 353 340 281 9 342 335 331 331 319 315 333 322 316 310 301 289 291 287 280 287 290 288 277 274 272 275 271 270 270 267 269 261 254 258 256 252
203 220 227 247 254 273 18 348 327 304 331 334 332 329 329 315 301 310 311 307 306 308 302 297 288 284 281 277 280 273 271 268 269 270 268 262 257 257 259 276 253 256 261 259
189 240 217 251 245 263 11 356 359 311 311 316 318 317 313 305 297 294 295 296 302 302 298 296 293 289 291 289 287 276 264 269 266 265 264 261 259 254 256 261 259 256 259 257
360 11 277 294 298 316 357 335 327 354 335 326 321 321 304 304 307 308 307 305 294 289 290 294 291 285 282 278 270 267 264 266 266 266 263 259 260 257 259 256 254 250 245 243
321 17 341 331 310 344 335 339 343 332 318 308 310 308 302 306 303 298 297 288 283 285 286 279 275 276 278 277 275 271 267 266 265 263 259 258 258 253 246 252 249 244 236 241
5 339 336 291 304 338 313 319 319 314 308 301 292 294 305 295 295 296 293 285 279 280 282 285 287 283 278 277 276 271 268 264 266 268 258 254 254 250 251 251 251 237 239 226
355 336 310 286 309 300 292 305 306 307 307 324 316 308 303 296 296 291 286 284 287 288 286 277 273 279 279 278 276 274 272 270 264 261 245 242 244 243 254 223 206 229 215 182
Height
734 742 741 730 722 718 718 719 718 704 691 696 693 699 699 694 691 691 691 697 700 702 704 704 706 711 720 727 730 732 730 724 730 735 736 738 738 737 752 758 758 762 762 764
737 739 722 716 717 720 717 720 720 708 699 700 699 698 697 696 691 685 686 692 695 699 701 701 707 711 718 726 729 732 731 727 725 731 734 737 737 740 748 753 754 753 758 760
734 723 708 712 718 723 718 725 724 721 703 694 697 703 701 694 688 681 676 678 683 690 696 700 704 711 717 723 728 729 733 732 718 730 728 736 736 737 742 743 740 746 751 758
724 712 714 714 718 718 728 711 709 711 714 723 694 716 697 686 682 676 676 676 680 684 684 692 700 708 716 724 726 726 725 723 723 722 730 733 733 734 735 734 738 743 743 753
723 717 716 715 717 713 719 706 711 710 712 712 709 718 699 684 682 673 670 673 676 679 685 692 702 711 717 722 724 724 723 724 726 729 719 726 731 734 731 732 733 741 740 741
717 706 708 707 699 703 704 711 715 716 719 730 711 711 698 689 676 665 660 669 674 680 687 694 700 708 715 719 721 721 724 722 722 723 723 715 730 729 729 728 731 733 735 736
710 711 704 699 703 702 707 719 736 736 732 733 706 720 691 669 656 652 658 668 674 681 688 693 699 703 707 712 715 716 717 719 721 723 725 723 719 724 725 728 727 730 727 731
734 741 713 725 736 718 717 727 722 739 730 716 696 732 691 672 656 655 654 663 672 680 685 689 693 697 701 705 708 712 715 716 718 719 719 717 716 716 717 724 722 722 721 723
726 726 706 723 721 716 724 735 716 717 711 711 702 709 692 675 667 659 666 672 676 680 685 690 694 698 700 703 707 710 713 715 714 715 716 716 715 717 719 721 720 716 716 717
718 723 707 707 717 723 731 727 744 745 749 737 701 688 690 683 691 670 668 675 677 681 685 690 693 695 697 700 703 706 708 710 711 713 713 711 712 713 714 713 712 712 713 715
721 727 723 724 722 719 719 729 713 708 712 726 723 703 682 686 671 678 669 672 676 680 683 687 688 690 692 694 696 699 701 703 705 706 708 709 710 711 710 710 708 709 710 709
729 748 735 722 709 704 701 705 713 746 734 717 723 714 678 682 677 675 672 672 673 675 678 678 682 686 690 691 692 694 697 699 701 701 703 704 705 705 706 705 706 706 706 706
724 732 740 731 708 723 745 746 735 747 728 733 744 699 679 697 687 684 680 676 673 673 670 671 674 678 684 688 689 690 692 694 695 695 697 698 700 702 702 703 702 702 700 698
729 731 737 738 725 718 740 737 720 733 729 710 700 687 678 686 698 694 686 679 681 679 668 665 668 672 676 681 685 688 690 691 692 693 694 694 695 696 698 695 695 694 693 691
725 732 726 719 713 708 705 700 698 699 691 694 689 690 678 676 684 685 680 681 680 684 689 660 660 667 671 674 677 679 682 684 687 688 688 688 689 690 689 688 687 686 685 684
718 729 723 723 713 706 702 693 687 683 678 675 672 669 662 660 659 662 667 672 671 677 667 656 658 659 668 669 671 673 677 679 681 683 685 685 684 684 684 683 680 677 677 676
724 725 733 730 710 703 707 693 684 685 677 675 681 671 668 670 656 658 665 671 675 670 673 670 666 659 664 667 670 672 674 676 677 678 678 679 680 679 676 675 674 671 669 668
726 729 731 732 721 724 685 676 674 694 709 685 689 691 679 680 680 678 673 676 685 675 677 668 662 661 661 662 665 667 669 670 672 671 671 672 673 670 669 666 663 661 660 657
719 730 745 738 724 705 689 694 688 681 683 673 679 676 675 675 676 668 665 671 678 673 668 668 666 661 658 658 658 661 662 664 664 664 663 664 664 662 661 656 653 651 651 649
724 730 743 731 734 718 687 692 692 700 684 686 688 685 682 676 671 666 667 664 664 663 662 659 657 655 653 651 653 654 654 655 655 656 654 653 654 652 650 646 644 642 641 639
730 737 740 728 727 707 693 696 687 694 699 690 689 687 685 684 680 671 669 664 662 658 654 653 649 645 644 644 645 644 645 645 646 647 645 643 642 641 641 639 634 633 632 632
724 727 722 719 719 717 703 705 714 711 698 694 690 689 687 682 675 670 667 662 657 652 648 646 641 637 637 639 640 637 637 638 637 636 633 631 631 629 630 629 626 625 625 625
719 721 728 720 712 703 709 709 704 703 702 696 692 692 687 676 670 666 660 660 656 651 644 641 636 633 632 632 632 629 628 628 626 624 622 621 620 620 618 618 618 617 617 617
713 714 720 723 702 707 712 704 707 709 708 702 697 690 682 672 668 666 660 655 648 643 639 635 630 624 623 624 623 621 619 617 616 614 611 611 610 609 609 609 608 607 606 606
736 730 742 723 710 718 712 715 712 708 704 697 692 685 675 669 662 659 653 647 640 635 631 627 623 619 617 617 614 610 608 607 605 602 601 601 600 598 598 598 597 595 594 597
745 746 747 738 737 737 726 716 711 704 695 689 685 677 672 663 658 652 644 637 632 627 622 618 614 611 609 607 602 598 598 597 595 593 590 590 591 589 588 588 587 585 586 589